period_start,C,m1,H,J0,J1,J2,J3,J4,J5,JA,JB,JC,JD,JJ,JK,JN,#
2017-01-26 00:00:52,0.35,2.14,0.00,23.51,26.79,30.44,14.31,49.61,1005.88,2030.63,2754.78,2504.53,2855.18,599.97,588.69,5.57,0000 0000 0000 0000 000000
2017-01-26 00:05:53,0.34,2.15,0.00,23.49,26.79,30.45,14.39,49.63,1005.87,2030.34,2749.27,2500.23,2850.27,599.93,588.57,5.62,0000 0000 0000 0000 000000
2017-01-26 00:10:54,0.36,2.17,0.00,23.50,26.78,30.43,14.31,49.41,1005.88,2030.26,2743.68,2496.05,2845.30,600.00,588.80,5.67,0000 0000 0000 0000 000000
2017-01-26 00:15:55,0.35,2.19,0.00,23.46,26.78,30.45,14.33,49.37,1005.89,2030.20,2738.12,2491.98,2840.50,599.97,588.79,5.72,0000 0000 0000 0000 000000
2017-01-26 00:20:56,0.36,2.21,0.00,23.39,26.77,30.48,14.38,49.52,1005.89,2030.16,2732.55,2487.77,2835.67,599.99,588.89,5.77,0000 0000 0000 0000 000000
2017-01-26 00:25:58,0.36,2.23,0.00,23.43,26.77,30.45,14.45,49.45,1005.87,2030.15,2727.11,2483.74,2830.94,600.22,589.08,5.82,0000 0000 0000 0000 000000
2017-01-26 00:30:59,0.36,2.25,0.00,23.44,26.77,30.37,14.41,49.38,1005.87,2030.14,2721.56,2479.59,2826.06,600.01,588.81,5.87,0000 0000 0000 0000 000000
2017-01-26 00:36:01,0.37,2.26,0.00,23.42,26.77,30.37,14.48,49.41,1005.87,2030.11,2715.95,2475.30,2821.22,600.29,589.20,5.93,0000 0000 0000 0000 000000
2017-01-26 00:41:02,0.36,2.28,0.00,23.43,26.77,30.38,14.44,49.41,1005.87,2030.14,2710.53,2471.18,2816.54,599.99,588.97,5.98,0000 0000 0000 0000 000000
2017-01-26 00:46:03,0.35,2.30,0.00,23.42,26.76,30.39,14.35,49.42,1005.88,2030.07,2705.19,2467.11,2811.92,599.68,588.64,6.03,0000 0000 0000 0000 000000
2017-01-26 00:51:04,0.38,2.32,0.00,23.42,26.76,30.38,14.42,49.36,1005.89,2030.18,2699.73,2463.01,2807.24,600.38,589.31,6.08,0000 0000 0000 0000 000000
2017-01-26 00:56:06,0.36,2.34,0.00,23.41,26.76,30.39,14.33,49.37,1005.89,2030.11,2694.23,2458.76,2802.42,600.10,589.01,6.13,0000 0000 0000 0000 000000
2017-01-26 01:01:07,0.36,2.36,0.00,23.44,26.76,30.42,14.38,49.35,1005.90,2030.14,2688.90,2454.75,2797.77,600.16,589.12,6.18,0000 0000 0000 0000 000000
2017-01-26 01:06:08,0.36,2.38,0.00,23.41,26.75,30.43,14.39,49.40,1005.88,2030.11,2683.59,2450.68,2793.08,600.22,589.10,6.23,0000 0000 0000 0000 000000
2017-01-26 01:11:10,0.36,2.39,0.00,23.34,26.75,30.45,14.46,49.61,1005.87,2030.05,2678.14,2446.57,2788.34,600.09,589.16,6.28,0000 0000 0000 0000 000000
2017-01-26 01:16:11,0.36,2.41,0.00,23.38,26.75,30.40,14.39,49.49,1005.87,2030.07,2672.75,2442.50,2783.63,599.69,588.74,6.33,0000 0000 0000 0000 000000
2017-01-26 01:21:13,0.38,2.43,0.00,23.39,26.75,30.38,14.40,49.51,1005.87,2030.07,2667.26,2438.35,2778.80,599.87,588.82,6.38,0000 0000 0000 0000 000000
2017-01-26 01:26:14,0.37,2.45,0.00,23.36,26.75,30.36,14.37,49.36,1005.87,2030.03,2661.72,2434.12,2774.00,600.03,589.03,6.43,0000 0000 0000 0000 000000
2017-01-26 01:31:15,0.36,2.47,0.00,23.35,26.75,30.38,14.47,49.35,1005.88,2030.02,2656.42,2430.21,2769.38,600.15,589.21,6.48,0000 0000 0000 0000 000000
2017-01-26 01:36:16,0.36,2.49,0.00,23.35,26.75,30.38,14.32,49.27,1005.88,2030.03,2651.14,2426.28,2764.82,599.93,588.89,6.53,0000 0000 0000 0000 000000
2017-01-26 01:41:17,0.36,2.50,0.00,23.39,26.75,30.39,14.41,49.27,1005.87,2030.02,2645.93,2422.42,2760.30,600.24,589.14,6.58,0000 0000 0000 0000 000000
2017-01-26 01:46:19,0.37,2.52,0.00,23.39,26.75,30.40,14.21,49.38,1005.86,2030.02,2640.52,2418.26,2755.54,599.65,588.65,6.63,0000 0000 0000 0000 000000
2017-01-26 01:51:20,0.37,2.54,0.00,23.34,26.75,30.41,14.43,49.36,1005.83,2030.01,2635.13,2414.13,2750.95,600.25,589.21,6.68,0000 0000 0000 0000 000000
2017-01-26 01:56:21,0.36,2.56,0.00,23.26,26.75,30.43,14.37,49.30,1005.86,2030.01,2629.78,2410.11,2746.39,599.89,589.07,6.73,0000 0000 0000 0000 000000
2017-01-26 02:01:22,0.36,2.58,0.00,23.27,26.75,30.38,14.36,49.40,1005.86,2030.00,2624.57,2406.13,2741.80,599.92,589.10,6.78,0000 0000 0000 0000 000000
2017-01-26 02:06:24,0.36,2.60,0.00,23.33,26.75,30.33,14.43,49.38,1005.86,2030.00,2619.45,2402.16,2737.23,600.16,589.19,6.83,0000 0000 0000 0000 000000
2017-01-26 02:11:25,0.40,2.62,0.00,23.38,26.74,30.35,14.39,49.40,1005.86,2030.00,2613.92,2398.01,2732.43,600.10,589.08,6.88,0000 0000 0000 0000 000000
2017-01-26 02:16:26,0.36,2.64,0.00,23.35,26.74,30.37,14.34,49.38,1005.87,2030.04,2608.67,2394.03,2727.86,599.89,588.93,6.93,0000 0000 0000 0000 000000
2017-01-26 02:21:27,0.36,2.65,0.00,23.36,26.73,30.37,14.43,49.28,1005.87,2030.02,2603.52,2390.10,2723.37,600.14,589.15,6.98,0000 0000 0000 0000 000000
2017-01-26 02:26:28,0.35,2.67,0.00,23.36,26.73,30.37,14.47,49.45,1005.87,2030.02,2598.42,2386.46,2719.02,600.14,589.07,7.03,0000 0000 0000 0000 000000
2017-01-26 02:31:29,0.36,2.69,0.00,23.36,26.73,30.40,14.34,49.39,1005.85,2030.01,2593.18,2382.70,2714.61,599.84,588.84,7.08,0000 0000 0000 0000 000000
2017-01-26 02:36:30,0.37,2.71,0.00,23.35,26.73,30.39,14.33,49.41,1005.87,2030.00,2588.02,2378.75,2710.06,599.99,589.07,7.13,0000 0000 0000 0000 000000
2017-01-26 02:41:32,0.36,2.73,0.00,23.38,26.73,30.40,14.46,49.51,1005.87,2030.00,2583.03,2374.95,2705.63,600.11,589.08,7.18,0000 0000 0000 0000 000000
2017-01-26 02:46:33,0.37,2.75,0.00,23.38,26.73,30.40,14.32,49.46,1005.88,2030.00,2578.00,2371.01,2701.10,599.77,588.80,7.23,0000 0000 0000 0000 000000
2017-01-26 02:51:34,0.35,2.76,0.00,23.33,26.73,30.41,14.40,49.48,1005.88,2030.00,2572.97,2367.28,2696.73,600.19,589.31,7.28,0000 0000 0000 0000 000000
2017-01-26 02:56:35,0.35,2.78,0.00,23.27,26.72,30.41,14.38,49.30,1005.88,2030.00,2568.08,2363.71,2692.52,599.57,588.78,7.33,0000 0000 0000 0000 000000
2017-01-26 03:01:37,0.35,2.80,0.00,23.33,26.72,30.36,14.33,49.31,1005.87,2030.00,2563.19,2359.98,2688.25,599.62,588.69,7.38,0000 0000 0000 0000 000000
2017-01-26 03:06:38,0.35,2.82,0.00,23.34,26.72,30.37,14.38,49.41,1005.87,2030.00,2558.43,2356.26,2684.07,599.98,589.01,7.43,0000 0000 0000 0000 000000
2017-01-26 03:11:39,0.35,2.83,0.00,23.37,26.72,30.36,14.36,49.52,1005.88,2030.00,2553.59,2352.60,2679.82,600.03,589.20,7.48,0000 0000 0000 0000 000000
2017-01-26 03:16:40,0.35,2.85,0.00,23.39,26.72,30.41,14.38,49.40,1005.87,2029.99,2548.70,2348.93,2675.59,600.06,588.99,7.53,0000 0000 0000 0000 000000
2017-01-26 03:21:41,0.36,2.87,0.00,23.34,26.72,30.40,14.28,49.52,1005.87,2029.99,2543.80,2345.16,2671.28,599.91,588.91,7.58,0000 0000 0000 0000 000000
2017-01-26 03:26:43,0.35,2.89,0.00,23.29,26.72,30.40,14.49,49.51,1005.87,2029.99,2538.93,2341.50,2667.07,600.50,589.62,7.63,0000 0000 0000 0000 000000
2017-01-26 03:31:44,0.36,2.91,0.00,23.36,26.72,30.39,14.36,49.43,1005.87,2029.99,2533.96,2337.81,2662.78,599.92,589.01,7.68,0000 0000 0000 0000 000000
2017-01-26 03:36:46,0.36,2.93,0.00,23.34,26.72,30.39,14.41,49.53,1005.87,2029.99,2529.19,2334.13,2658.59,599.97,588.99,7.73,0000 0000 0000 0000 000000
2017-01-26 03:41:47,0.35,2.95,0.00,23.34,26.72,30.39,14.32,49.38,1005.87,2029.99,2524.35,2330.48,2654.36,599.85,588.90,7.78,0000 0000 0000 0000 000000
2017-01-26 03:46:48,0.36,2.96,0.00,23.34,26.72,30.41,14.43,49.49,1005.87,2029.99,2519.53,2326.83,2650.16,600.11,589.24,7.83,0000 0000 0000 0000 000000
2017-01-26 03:51:49,0.37,2.98,0.00,23.31,26.72,30.41,14.42,49.48,1005.87,2029.99,2514.59,2323.08,2645.79,600.18,589.31,7.88,0000 0000 0000 0000 000000
2017-01-26 03:56:50,0.37,3.00,0.00,23.29,26.72,30.39,14.40,49.44,1005.87,2029.99,2509.63,2319.28,2641.45,599.99,589.21,7.93,0000 0000 0000 0000 000000
2017-01-26 04:01:52,0.36,3.02,0.00,23.28,26.72,30.38,14.42,49.51,1005.87,2029.99,2504.78,2315.63,2637.26,600.20,589.32,7.98,0000 0000 0000 0000 000000
2017-01-26 04:06:53,0.37,3.04,0.00,23.27,26.72,30.38,14.40,49.40,1005.86,2029.99,2499.84,2311.86,2632.92,600.03,589.21,8.03,0000 0000 0000 0000 000000
2017-01-26 04:11:54,0.35,3.06,0.00,23.27,26.72,30.37,14.38,49.51,1005.83,2029.99,2495.18,2308.23,2628.74,600.12,589.30,8.08,0000 0000 0000 0000 000000
2017-01-26 04:16:56,0.35,3.07,0.00,23.33,26.72,30.36,14.45,49.50,1005.67,2029.99,2490.56,2304.70,2624.67,600.04,589.00,8.13,0000 0000 0000 0000 000000
2017-01-26 04:21:57,0.34,3.09,0.00,23.30,26.72,30.38,14.36,49.40,1005.44,2029.99,2485.83,2301.19,2620.70,600.05,588.99,8.18,0000 0000 0000 0000 000000
2017-01-26 04:26:58,0.35,3.11,0.00,23.24,26.72,30.39,14.45,49.39,1005.44,2029.98,2481.14,2297.68,2616.62,600.17,589.25,8.23,0000 0000 0000 0000 000000
2017-01-26 04:31:59,0.35,3.13,0.00,23.18,26.72,30.40,14.35,49.42,1005.48,2029.98,2476.51,2294.18,2612.58,599.68,588.88,8.28,0000 0000 0000 0000 000000
2017-01-26 04:37:00,0.35,3.14,0.00,23.26,26.72,30.35,14.40,49.35,1005.42,2029.98,2471.82,2290.65,2608.49,600.28,589.23,8.34,0000 0000 0000 0000 000000
2017-01-26 04:42:01,0.37,3.16,0.00,23.31,26.72,30.32,14.40,49.43,1005.39,2029.98,2467.05,2287.04,2604.34,600.38,589.21,8.39,0000 0000 0000 0000 000000
2017-01-26 04:47:03,0.37,3.18,0.00,23.24,26.72,30.36,14.38,49.50,1005.39,2029.97,2462.13,2283.28,2600.03,599.78,588.72,8.44,0000 0000 0000 0000 000000
2017-01-26 04:52:04,0.37,3.20,0.00,23.18,26.72,30.35,14.34,49.48,1005.41,2029.98,2457.32,2279.66,2595.85,599.82,588.91,8.49,0000 0000 0000 0000 000000
2017-01-26 04:57:05,0.37,3.22,0.00,23.26,26.72,30.33,14.43,49.49,1005.41,2029.98,2452.45,2275.99,2591.63,600.27,589.22,8.54,0000 0000 0000 0000 000000
2017-01-26 05:02:07,0.37,3.24,0.00,23.28,26.72,30.34,14.44,49.48,1005.42,2029.97,2447.55,2272.30,2587.34,600.05,588.96,8.59,0000 0000 0000 0000 000000
2017-01-26 05:07:08,0.38,3.26,0.00,23.29,26.72,30.35,14.40,49.48,1005.50,2029.97,2442.66,2268.54,2583.07,599.79,588.79,8.64,0000 0000 0000 0000 000000
2017-01-26 05:12:09,0.38,3.28,0.00,23.31,26.72,30.39,14.35,49.52,1005.71,2029.97,2437.80,2264.81,2578.83,600.05,589.06,8.69,0000 0000 0000 0000 000000
2017-01-26 05:17:10,0.38,3.30,0.00,23.26,26.72,30.41,14.39,49.57,1005.58,2029.95,2432.95,2261.12,2574.54,599.91,588.95,8.74,0000 0000 0000 0000 000000
2017-01-26 05:22:12,0.37,3.32,0.00,23.19,26.72,30.44,14.39,49.47,1005.47,2029.96,2428.17,2257.46,2570.30,600.18,589.32,8.79,0000 0000 0000 0000 000000
2017-01-26 05:27:13,0.39,3.33,0.00,23.17,26.72,30.40,14.42,49.69,1005.41,2029.90,2423.32,2253.74,2566.05,600.13,589.20,8.84,0000 0000 0000 0000 000000
2017-01-26 05:32:14,0.38,3.35,0.00,23.26,26.72,30.34,14.38,49.54,1005.40,2029.96,2418.51,2249.99,2561.74,599.90,588.85,8.89,0000 0000 0000 0000 000000
2017-01-26 05:37:15,0.36,3.37,0.00,23.30,26.72,30.34,14.31,49.48,1005.40,2029.90,2413.82,2246.40,2557.84,599.79,588.66,8.94,0000 0000 0000 0000 000000
2017-01-26 05:42:16,0.37,3.39,0.00,23.28,26.72,30.38,14.43,49.55,1005.42,2029.94,2409.13,2242.85,2553.76,600.19,589.05,8.99,0000 0000 0000 0000 000000
2017-01-26 05:47:17,0.37,3.41,0.00,23.18,26.72,30.43,14.50,49.61,1005.39,2029.94,2404.40,2239.34,2549.58,600.32,589.48,9.04,0000 0000 0000 0000 000000
2017-01-26 05:52:19,0.35,3.43,0.00,23.16,26.72,30.37,14.33,49.53,1005.39,2029.87,2399.73,2235.93,2545.51,599.92,589.01,9.09,0000 0000 0000 0000 000000
2017-01-26 05:57:20,0.37,3.45,0.00,23.27,26.72,30.35,14.32,49.55,1005.39,2029.79,2395.08,2232.42,2541.49,599.72,588.66,9.14,0000 0000 0000 0000 000000
2017-01-26 06:02:21,0.36,3.46,0.00,23.27,26.72,30.36,14.46,49.69,1005.39,2029.79,2390.45,2228.87,2537.37,600.38,589.29,9.19,0000 0000 0000 0000 000000
2017-01-26 06:07:23,0.35,3.48,0.00,23.29,26.72,30.38,14.34,49.73,1005.35,2029.71,2385.87,2225.44,2533.39,599.87,588.73,9.24,0000 0000 0000 0000 000000
2017-01-26 06:12:24,0.36,3.50,0.00,23.20,26.72,30.39,14.43,49.61,1005.36,2029.67,2381.33,2221.98,2529.41,600.09,589.17,9.29,0000 0000 0000 0000 000000
2017-01-26 06:17:25,0.37,3.52,0.00,23.20,26.72,30.37,14.34,49.67,1005.38,2029.55,2376.73,2218.51,2525.36,599.74,588.73,9.34,0000 0000 0000 0000 000000
2017-01-26 06:22:26,0.38,3.54,0.00,23.23,26.72,30.38,14.37,49.74,1005.34,2029.77,2372.28,2215.13,2521.43,599.97,588.88,9.39,0000 0000 0000 0000 000000
2017-01-26 06:27:28,0.34,3.56,0.00,23.16,26.72,30.38,14.41,49.81,1005.39,2029.58,2367.82,2211.66,2517.44,600.05,589.21,9.44,0000 0000 0000 0000 000000
2017-01-26 06:32:29,0.37,3.57,0.00,23.12,26.72,30.38,14.43,49.74,1005.37,2029.62,2363.38,2208.19,2513.42,600.12,589.35,9.49,0000 0000 0000 0000 000000
2017-01-26 06:37:30,0.38,3.59,0.00,23.07,26.72,30.37,14.40,49.83,1005.17,2029.61,2358.84,2204.71,2509.44,599.85,589.04,9.54,0000 0000 0000 0000 000000
2017-01-26 06:42:32,0.36,3.61,0.00,23.01,26.70,30.36,14.41,50.05,1004.90,2029.56,2354.31,2201.22,2505.45,600.10,589.24,9.59,0000 0000 0000 0000 000000
2017-01-26 06:47:33,0.36,3.63,0.00,23.07,26.70,30.27,14.43,50.19,1004.90,2029.36,2349.63,2197.71,2501.34,599.85,588.95,9.64,0000 0000 0000 0000 000000
2017-01-26 06:52:35,0.37,3.65,0.00,23.03,26.70,30.28,14.42,50.14,1004.90,2029.41,2345.14,2194.23,2497.37,599.74,588.86,9.69,0000 0000 0000 0000 000000
2017-01-26 06:57:36,0.38,3.67,0.00,22.94,26.70,30.26,14.39,50.18,1004.89,2029.44,2340.55,2190.69,2493.45,599.96,589.33,9.74,0000 0000 0000 0000 000000
2017-01-26 07:02:37,0.40,3.69,0.00,22.88,26.69,30.25,14.51,50.28,1004.82,2029.61,2335.93,2187.21,2489.35,600.16,589.49,9.79,0000 0000 0000 0000 000000
2017-01-26 07:07:39,0.38,3.71,0.00,22.85,26.67,30.27,14.43,50.23,1004.90,2029.42,2331.13,2183.52,2485.02,600.06,589.66,9.84,0000 0000 0000 0000 000000
2017-01-26 07:12:40,0.38,3.73,0.00,22.83,26.67,30.19,14.35,50.19,1005.30,2029.46,2326.69,2180.10,2481.08,599.89,589.62,9.89,0000 0000 0000 0000 000000
2017-01-26 07:17:42,0.37,3.75,0.00,22.77,26.65,30.14,14.47,50.16,1005.40,2029.66,2322.41,2176.85,2477.34,600.01,589.91,9.94,0000 0000 0000 0000 000000
2017-01-26 07:22:43,0.35,3.76,0.00,22.76,26.65,30.11,14.42,50.17,1005.49,2029.79,2318.19,2173.74,2473.61,600.17,590.00,9.99,0000 0000 0000 0000 000000
2017-01-26 07:27:44,0.36,3.78,0.00,22.75,26.62,30.07,14.42,50.08,1005.80,2029.78,2313.90,2170.53,2469.91,599.94,590.12,10.04,0000 0000 0000 0000 000000
2017-01-26 07:32:46,0.34,3.80,0.00,22.74,26.62,30.03,14.45,50.02,1005.86,2029.85,2309.73,2167.40,2466.28,600.21,590.43,10.09,0000 0000 0000 0000 000000
2017-01-26 07:37:47,0.36,3.82,0.00,22.72,26.60,30.07,14.40,49.86,1005.87,2029.91,2305.54,2164.24,2462.64,599.81,590.18,10.14,0000 0000 0000 0000 000000
2017-01-26 07:42:49,0.35,3.84,0.00,22.71,26.59,30.05,14.38,49.86,1005.87,2029.95,2301.53,2161.14,2459.06,600.00,590.46,10.19,0000 0000 0000 0000 000000
2017-01-26 07:47:50,0.35,3.86,0.00,22.70,26.57,30.01,14.38,49.94,1005.87,2029.97,2297.45,2158.00,2455.49,599.73,590.07,10.24,0000 0000 0000 0000 000000
2017-01-26 07:52:51,0.35,3.87,0.00,22.69,26.57,30.03,14.47,50.17,1005.88,2029.98,2293.32,2154.88,2451.87,600.10,590.43,10.29,0000 0000 0000 0000 000000
2017-01-26 07:57:52,0.34,3.89,0.00,22.70,26.56,29.96,14.47,50.09,1005.89,2029.99,2289.24,2151.77,2448.27,599.91,590.32,10.34,0000 0000 0000 0000 000000
2017-01-26 08:02:54,0.34,3.91,0.00,22.71,26.55,29.97,14.43,49.94,1006.05,2029.99,2285.18,2148.71,2444.72,600.21,590.46,10.39,0000 0000 0000 0000 000000
2017-01-26 08:07:55,0.34,3.93,0.00,22.69,26.54,29.94,14.40,49.96,1006.22,2029.99,2281.19,2145.63,2441.19,600.07,590.52,10.44,0000 0000 0000 0000 000000
2017-01-26 08:12:56,0.34,3.94,0.00,22.70,26.52,29.96,14.46,50.00,1006.08,2029.99,2277.26,2142.63,2437.75,600.09,590.55,10.49,0000 0000 0000 0000 000000
2017-01-26 08:17:57,0.33,3.96,0.00,22.71,26.52,29.96,14.43,49.97,1005.99,2029.99,2273.32,2139.61,2434.32,600.08,590.31,10.54,0000 0000 0000 0000 000000
2017-01-26 08:22:58,0.35,3.98,0.00,22.70,26.52,29.91,14.37,50.10,1005.92,2029.99,2269.33,2136.57,2430.91,599.94,590.37,10.60,0000 0000 0000 0000 000000
2017-01-26 08:28:00,0.33,3.99,0.00,22.70,26.50,29.94,14.43,49.95,1006.14,2029.99,2265.43,2133.61,2427.52,599.97,590.45,10.65,0000 0000 0000 0000 000000
2017-01-26 08:33:01,0.34,4.01,0.00,22.69,26.50,29.96,14.41,50.15,1006.20,2029.99,2261.49,2130.62,2424.09,600.05,590.59,10.70,0000 0000 0000 0000 000000
2017-01-26 08:38:02,0.33,4.03,0.00,22.67,26.50,29.92,14.43,50.23,1006.09,2029.99,2257.64,2127.70,2420.70,599.90,590.43,10.75,0000 0000 0000 0000 000000
2017-01-26 08:43:04,0.33,4.05,0.00,22.68,26.49,29.94,14.42,50.38,1006.19,2029.99,2253.80,2124.72,2417.27,599.91,590.61,10.80,0000 0000 0000 0000 000000
2017-01-26 08:48:05,0.32,4.06,0.00,22.66,26.47,29.95,14.36,50.36,1006.32,2029.99,2249.97,2121.84,2413.99,600.06,590.74,10.85,0000 0000 0000 0000 000000
2017-01-26 08:53:06,0.33,4.08,0.00,22.65,26.47,29.90,14.43,50.37,1006.15,2029.99,2246.21,2118.99,2410.72,599.96,590.58,10.90,0000 0000 0000 0000 000000
2017-01-26 08:58:07,0.32,4.10,0.00,22.63,26.47,29.95,14.50,50.34,1005.89,2029.99,2242.52,2116.19,2407.49,600.25,590.78,10.95,0000 0000 0000 0000 000000
2017-01-26 09:03:09,0.32,4.11,0.00,22.61,26.45,29.95,14.41,50.52,1005.87,2030.00,2238.89,2113.35,2404.20,599.84,590.25,11.00,0000 0000 0000 0000 000000
2017-01-26 09:08:10,0.33,4.13,0.00,22.58,26.45,29.91,14.36,50.53,1005.87,2030.01,2235.13,2110.54,2400.79,599.46,590.06,11.05,0000 0000 0000 0000 000000
2017-01-26 09:13:11,0.32,4.14,0.00,22.55,26.43,29.87,14.39,50.41,1005.95,2030.01,2231.40,2107.75,2397.49,599.80,590.49,11.10,0000 0000 0000 0000 000000
2017-01-26 09:18:12,0.32,4.16,0.00,22.52,26.42,29.88,14.43,50.33,1006.35,2030.02,2227.80,2105.07,2394.33,600.15,591.07,11.15,0000 0000 0000 0000 000000
2017-01-26 09:23:14,0.33,4.18,0.00,22.51,26.41,29.88,14.46,49.93,1006.70,2030.03,2224.14,2102.26,2391.11,600.29,591.48,11.20,0000 0000 0000 0000 000000
2017-01-26 09:28:15,0.32,4.19,0.00,22.48,26.40,29.87,14.51,50.02,1006.64,2030.03,2220.40,2099.41,2387.81,600.27,591.49,11.25,0000 0000 0000 0000 000000
2017-01-26 09:33:16,0.33,4.21,0.00,22.47,26.37,29.86,14.44,50.13,1006.38,2030.06,2216.76,2096.62,2384.65,600.41,591.51,11.30,0000 0000 0000 0000 000000
2017-01-26 09:38:18,0.33,4.23,0.00,22.46,26.36,29.83,14.49,50.27,1006.38,2030.21,2213.20,2093.98,2381.55,600.10,591.15,11.35,0000 0000 0000 0000 000000
2017-01-26 09:43:19,0.36,4.24,0.00,22.42,26.35,29.81,14.50,50.20,1006.61,2030.34,2209.59,2091.22,2378.38,600.13,591.50,11.40,0000 0000 0000 0000 000000
2017-01-26 09:48:20,0.32,4.26,0.00,22.42,26.33,29.77,14.47,50.09,1006.74,2030.51,2205.92,2088.46,2375.21,600.07,591.47,11.45,0000 0000 0000 0000 000000
2017-01-26 09:53:22,0.34,4.28,0.00,22.41,26.32,29.77,14.47,50.29,1006.41,2030.60,2202.36,2085.76,2372.11,599.94,591.19,11.50,0000 0000 0000 0000 000000
2017-01-26 09:58:23,0.34,4.30,0.00,22.39,26.30,29.75,14.45,50.24,1006.39,2030.83,2198.80,2083.07,2369.03,600.10,591.45,11.55,0000 0000 0000 0000 000000
2017-01-26 10:03:24,0.33,4.31,0.00,22.37,26.28,29.74,14.41,50.45,1006.34,2030.88,2195.14,2080.32,2366.01,599.97,591.25,11.60,0000 0000 0000 0000 000000
2017-01-26 10:08:26,0.32,4.33,0.00,22.34,26.27,29.73,14.38,50.37,1006.31,2030.96,2191.60,2077.59,2362.93,599.89,591.19,11.65,0000 0000 0000 0000 000000
2017-01-26 10:13:27,0.34,4.35,0.00,22.33,26.25,29.72,14.46,50.53,1006.26,2030.97,2187.91,2074.75,2359.70,599.91,591.16,11.70,0000 0000 0000 0000 000000
2017-01-26 10:18:28,0.33,4.36,0.00,22.33,26.23,29.66,14.53,50.48,1006.08,2030.99,2184.27,2072.01,2356.50,600.16,591.12,11.75,0000 0000 0000 0000 000000
2017-01-26 10:23:29,0.32,4.38,0.00,22.29,26.22,29.65,14.35,50.52,1005.81,2030.99,2180.66,2069.27,2353.36,599.95,591.02,11.80,0000 0000 0000 0000 000000
2017-01-26 10:28:30,0.33,4.40,0.00,22.26,26.20,29.64,14.45,50.55,1005.87,2030.99,2177.05,2066.47,2350.17,599.68,590.90,11.85,0000 0000 0000 0000 000000
2017-01-26 10:33:32,0.32,4.41,0.00,22.24,26.18,29.62,14.53,50.54,1005.88,2030.99,2173.59,2063.79,2347.03,600.28,591.56,11.90,0000 0000 0000 0000 000000
2017-01-26 10:38:33,0.31,4.43,0.00,22.19,26.16,29.58,14.49,50.68,1005.88,2031.00,2170.11,2061.20,2343.99,599.88,591.27,11.95,0000 0000 0000 0000 000000
2017-01-26 10:43:35,0.31,4.44,0.00,22.18,26.14,29.59,14.52,50.46,1005.88,2031.04,2166.68,2058.62,2341.01,599.95,591.33,12.00,0000 0000 0000 0000 000000
2017-01-26 10:48:36,0.32,4.46,0.00,22.16,26.12,29.58,14.54,50.59,1005.87,2031.07,2163.24,2055.95,2337.95,600.18,591.58,12.05,0000 0000 0000 0000 000000
2017-01-26 10:53:37,0.33,4.48,0.00,22.13,26.10,29.51,14.45,50.57,1005.81,2031.12,2159.77,2053.26,2334.78,599.82,591.27,12.10,0000 0000 0000 0000 000000
2017-01-26 10:58:39,0.36,4.50,0.00,22.09,26.07,29.50,14.50,50.44,1005.48,2031.45,2156.29,2050.66,2331.73,599.88,591.21,12.15,0000 0000 0000 0000 000000
2017-01-26 11:03:40,0.35,4.51,0.00,22.05,26.05,29.51,14.49,50.55,1005.43,2031.67,2152.73,2047.90,2328.58,600.00,591.43,12.20,0000 0000 0000 0000 000000
2017-01-26 11:08:41,0.35,4.53,0.00,22.03,26.03,29.49,14.40,50.42,1005.41,2031.91,2149.17,2045.42,2325.38,599.84,591.25,12.25,0000 0000 0000 0000 000000
2017-01-26 11:13:42,0.33,4.55,0.00,22.01,26.01,29.44,14.43,50.58,1005.58,2031.94,2145.74,2042.77,2322.24,599.91,591.46,12.30,0000 0000 0000 0000 000000
2017-01-26 11:18:44,0.32,4.56,0.00,21.98,25.99,29.43,14.53,50.70,1005.68,2031.98,2142.29,2040.17,2319.22,600.28,591.97,12.35,0000 0000 0000 0000 000000
2017-01-26 11:23:45,0.31,4.58,0.00,21.95,25.96,29.40,14.50,50.69,1005.76,2031.99,2138.94,2037.58,2316.29,599.98,591.74,12.40,0000 0000 0000 0000 000000
2017-01-26 11:28:46,0.31,4.60,0.00,21.93,25.94,29.42,14.44,50.83,1005.61,2031.99,2135.58,2035.05,2313.37,599.73,591.45,12.45,0000 0000 0000 0000 000000
2017-01-26 11:33:47,0.32,4.62,0.00,21.91,25.92,29.37,14.46,50.80,1005.41,2031.99,2132.10,2032.44,2310.36,600.06,591.70,12.50,0000 0000 0000 0000 000000
2017-01-26 11:38:48,0.31,4.63,0.00,21.87,25.89,29.33,14.42,50.72,1005.41,2031.99,2128.83,2029.99,2307.52,599.54,591.41,12.55,0000 0000 0000 0000 000000
2017-01-26 11:43:49,0.31,4.65,0.00,21.86,25.87,29.36,14.48,50.43,1005.66,2032.00,2125.57,2027.52,2304.67,600.13,592.05,12.60,0000 0000 0000 0000 000000
2017-01-26 11:48:51,0.31,4.66,0.00,21.84,25.85,29.30,14.51,50.42,1005.58,2032.00,2122.22,2025.07,2301.90,600.28,592.07,12.65,0000 0000 0000 0000 000000
2017-01-26 11:53:52,0.32,4.68,0.00,21.81,25.82,29.26,14.51,50.58,1005.45,2032.02,2118.94,2022.56,2299.00,600.02,591.99,12.70,0000 0000 0000 0000 000000
2017-01-26 11:58:53,0.32,4.69,0.00,21.80,25.80,29.22,14.46,50.58,1005.43,2032.10,2115.63,2020.04,2296.09,600.11,592.00,12.75,0000 0000 0000 0000 000000
2017-01-26 12:03:54,0.38,4.71,0.00,21.78,25.77,29.19,14.50,50.56,1005.39,2032.56,2112.30,2017.52,2293.16,599.88,591.88,12.81,0000 0000 0000 0000 000000
2017-01-26 12:08:56,0.33,4.73,0.00,21.73,25.75,29.19,14.49,50.49,1005.38,2032.65,2109.00,2014.89,2290.13,599.78,591.85,12.86,0000 0000 0000 0000 000000
2017-01-26 12:13:57,0.33,4.75,0.00,21.74,25.73,29.20,14.52,50.44,1005.33,2032.83,2105.63,2012.30,2287.16,600.04,591.92,12.91,0000 0000 0000 0000 000000
2017-01-26 12:18:59,0.34,4.76,0.00,21.71,25.71,29.10,14.51,50.48,1004.97,2032.92,2102.23,2009.70,2284.15,600.41,592.13,12.96,0000 0000 0000 0000 000000
2017-01-26 12:24:00,0.34,4.78,0.00,21.69,25.69,29.10,14.50,50.64,1004.90,2032.97,2098.72,2007.08,2281.08,600.00,591.91,13.01,0000 0000 0000 0000 000000
2017-01-26 12:29:02,0.32,4.80,0.00,21.67,25.66,29.10,14.48,50.76,1004.66,2032.98,2095.30,2004.47,2278.13,600.04,591.73,13.06,0000 0000 0000 0000 000000
2017-01-26 12:34:03,0.33,4.82,0.00,21.64,25.65,29.09,14.46,50.58,1004.54,2032.99,2091.95,2001.89,2275.09,600.04,591.73,13.11,0000 0000 0000 0000 000000
2017-01-26 12:39:05,0.34,4.83,0.00,21.63,25.62,29.09,14.48,50.72,1004.64,2032.99,2088.52,1999.24,2272.00,600.12,591.84,13.16,0000 0000 0000 0000 000000
2017-01-26 12:44:06,0.34,4.85,0.00,21.62,25.60,29.08,14.47,50.90,1004.41,2032.99,2085.01,1996.56,2268.87,600.15,591.79,13.21,0000 0000 0000 0000 000000
2017-01-26 12:49:08,0.34,4.87,0.00,21.58,25.58,29.04,14.58,51.08,1004.21,2033.00,2081.55,1993.89,2265.81,600.45,592.06,13.26,0000 0000 0000 0000 000000
2017-01-26 12:54:09,0.36,4.88,0.00,21.56,25.56,29.03,14.45,51.07,1003.91,2033.01,2077.98,1991.22,2262.71,599.80,591.36,13.31,0000 0000 0000 0000 000000
2017-01-26 12:59:10,0.36,4.90,0.00,21.54,25.54,29.01,14.44,51.08,1003.66,2033.02,2074.36,1988.43,2259.50,599.83,591.21,13.36,0000 0000 0000 0000 000000